Flag for U.S.A. Weather past 2 weeks in Lexington-Fayette, Kentucky, U.S.A.

Now
74 °F

Passing clouds.


Feels Like: 72 °F
Forecast: 69 / 80 °F
Wind: 7 mph from South

Location: Blue Grass Airport

Current Time: Sep 2, 2014 at 12:46:03 AM

Latest Report: Sep 1, 2014 at 11:54 PM


Visibility: 10 mi

Pressure: 29.98 "Hg

Humidity: 91%

Dew point: 71 °F

Location of Lexington-FayetteLocation

Historic Weather in Lexington-Fayette — Graph

°F

Lexington-Fayette temperature yesterday

Maximum temperature yesterday: 85 °F (at 3:54 PM)
Minimum temperature yesterday: 74 °F (at 1:00 AM)
Average temperature yesterday: 78 °F

Past Weeks' High & Low Weather Summary

 TemperatureHumidityPressure
High92 °F (Aug 23, 3:54 PM)93% (Aug 18, 4:54 AM)30.14 "Hg (Aug 18, 4:54 AM)
Low68 °F (Aug 27, 4:54 AM)43% (Aug 29, 5:54 PM)29.79 "Hg (Aug 18, 5:54 AM)
Average78 °F76%30.00 "Hg
* Reported Aug 17 10:01 PM — Sep 1 10:54 PM, Lexington-Fayette, Weather by CustomWeather, © 2014

Note: Actual official high and low records may vary slightly from our data, if they occured in-between our weather recording intervals... More about our weather records

Advertising

Lexington-Fayette weather history for previous 24 hours

 ConditionsComfort  
Time TempWeatherWind HumidityBarometerVisibility
10:54 PM
Sep 1
74 °FPartly cloudy.7 mph91%30.00 "Hg10 mi
9:54 PM75 °FPassing clouds.6 mph88%30.00 "Hg10 mi
9:01 PM78 °FThunderstorms. Broken clouds.7 mph82%30.02 "Hg10 mi
7:54 PM80 °FSunny.7 mph76%29.97 "Hg10 mi
6:54 PM82 °FSunny.12 mph70%29.96 "Hg10 mi
5:54 PM80 °FLight rain. Broken clouds.13 mph79%29.95 "Hg5 mi
4:54 PM85 °FPassing clouds.15 mph63%29.96 "Hg10 mi
3:54 PM85 °FSunny.13 mph65%29.96 "Hg10 mi
2:54 PM80 °FSunny.10 mph74%29.98 "Hg10 mi
1:54 PM77 °FSunny.14 mph85%30.00 "Hg10 mi
12:54 PM83 °FBroken clouds.15 mph65%29.99 "Hg10 mi
11:54 AM83 °FPassing clouds.13 mph70%30.02 "Hg10 mi
10:54 AM81 °FPartly sunny.10 mph77%30.04 "Hg10 mi
9:54 AM77 °FMostly cloudy.9 mph85%30.03 "Hg10 mi
8:54 AM75 °FOvercast.12 mph88%30.04 "Hg10 mi
7:54 AM75 °FLow clouds.10 mph88%30.03 "Hg10 mi
6:54 AM75 °FLow clouds.12 mph88%30.03 "Hg10 mi
5:54 AM75 °FOvercast.7 mph88%30.03 "Hg10 mi
4:54 AM75 °FMostly cloudy.7 mph88%30.03 "Hg10 mi
3:54 AM75 °FOvercast.8 mph88%30.02 "Hg10 mi
3:04 AM74 °FMostly cloudy.8 mph91%30.05 "Hg10 mi
2:54 AM74 °FOvercast.7 mph91%30.02 "Hg10 mi
1:54 AM75 °FLow clouds.8 mph88%30.01 "Hg10 mi
1:00 AM74 °FPassing clouds.6 mph91%30.04 "Hg10 mi
Weather by CustomWeather, © 2014

See weather overviewHow to use our weather pages